GORIZONT 2 [-]

Last updated on Nov. 15, 2019, 4:20 a.m. UTC

1 11440U 79062A   19317.73487733 -.00000137  00000-0  00000-0 0  9999
2 11440  11.3437 313.1396 0005335 304.1395 140.2022  1.00239363113887
UTC
Height (km)
Latitude
Longitude
Inclination
Orbital Period
UTC large
Height (km)
Speed (km/s)
/
Latitude / Longitude
Inclination (degrees)
Orbital Period (minutes)
Azimuth
Elevation
Range (km)
Doppler Factor
iOS Compass Heading
iOS Angle

Next 30 passes for location: Hong Kong

Rise time Rise Azimuth (degrees) Set time Set Azimuth (degrees) Duration Max altitude (degrees)

No matching passes for this satellites